Location: Bégole
(43.1574°N, 0.3291°E)
Time: 01:58:56
(UTC+00:00)

deb Delta 89 - Pass Details

Date: 22 February 2024
Orbit: 714 x 2021 km, 97.5° (Epoch: 13 April)

Event Time Altitude Azimuth Distance (km) Brightness Sun altitude
Rises 03:38:16 0° 9° (N) 5,412 ? -34.8°
Reaches altitude 10° 03:41:34 10° 5° (N) 4,460 ? -34.2°
Maximum altitude 03:52:21 52° 295° (WNW) 2,366 ? -32.3°
Enters shadow 03:52:44 52° 289° (WNW) 2,365 ? -32.3°
